Home > Weather > Dausa > Past weeks

Flag for India Weather for the Past 2 Weeks in Dausa, Rajasthan, India

Now
66 °F

Haze.


Feels Like: 66 °F
Forecast: 51 / 79 °F
Wind: 10 mph from East

Location: Jaipur / Sanganer

Current Time: Feb 12, 2016 at 12:20:38 PM

Latest Report: Feb 12, 2016 at 10:00 AM


Visibility: 2 mi

Pressure: 29.98 "Hg

Humidity: 46%

Dew point: 45 °F

Location of DausaLocation

Historic Weather in Dausa — Graph

°F

Dausa Temperature Yesterday

Maximum temperature yesterday: 77 °F (at 2:00 PM)
Minimum temperature yesterday: 55 °F (at 7:00 AM)
Average temperature yesterday: 66 °F

High & Low Weather Summary for the Past Weeks

 TemperatureHumidityPressure
High82 °F (Jan 30, 4:00 PM)94% (Jan 30, 6:00 AM)30.18 "Hg (Jan 30, 6:00 AM)
Low48 °F (Feb 3, 6:00 AM)11% (Feb 11, 3:00 PM)29.80 "Hg (Feb 4, 9:00 PM)
Average66 °F43%30.02 "Hg
* Reported Jan 28 10:30 AM — Feb 12 10:00 AM, Dausa, Weather by CustomWeather, © 2016

Note: Actual official high and low records may vary slightly from our data, if they occured in-between our weather recording intervals... More about our weather records

Advertising

Dausa Weather History for the Previous 24 Hours

 ConditionsComfort  
Time TempWeatherWind HumidityBarometerVisibility
10:00 AM
Fri, Feb 12
66 °FHaze.10 mph46%29.98 "Hg2 mi
9:00 AM66 °FHaze.8 mph43%29.95 "Hg1 mi
8:00 AM61 °FHaze.No wind48%29.95 "Hg1 mi
7:00 AM61 °FHaze.3 mph52%29.95 "Hg1 mi
6:00 AM63 °FHaze.2 mph52%29.92 "Hg1 mi
5:00 AM64 °FHaze.6 mph49%29.92 "Hg2 mi
4:00 AM66 °FHaze.5 mph43%29.92 "Hg2 mi
12:00 AM63 °FHaze.3 mph25%29.95 "Hg2 mi
11:00 PM
Thu, Feb 11
63 °FHaze.2 mph27%29.95 "Hg1 mi
10:00 PM64 °FHaze.6 mph26%29.95 "Hg1 mi
9:00 PM64 °FHaze.5 mph26%29.95 "Hg1 mi
8:00 PM70 °FHaze.3 mph20%29.92 "Hg2 mi
7:00 PM72 °FHaze.3 mph17%29.89 "Hg2 mi
6:00 PM75 °FHaze.5 mph14%29.89 "Hg2 mi
5:30 PM77 °FHaze.6 mph12%29.86 "Hg2 mi
4:00 PM77 °FHaze.8 mph12%29.86 "Hg2 mi
3:00 PM77 °FHaze.13 mph11%29.86 "Hg2 mi
2:30 PM75 °FHaze.9 mph13%29.89 "Hg2 mi
2:00 PM77 °FHaze.12 mph13%29.89 "Hg2 mi
12:00 PM73 °FHaze.7 mph17%29.92 "Hg2 mi
Weather by CustomWeather, © 2016

See weather overviewHow to use our weather pages